Location: Abundant Grace Fellowship
(35.0349°N, 90.0924°W)
Time: 09:27:19
(UTC+00:00)

Helios 1A Rocket - Pass Details

Date: 18 January 2026
Orbit: 426 x 436 km, 98.3° (Epoch: 10 February)

Event Time Altitude Azimuth Distance (km) Brightness Sun altitude
Exits shadow 01:17:14 37° 278° (W) 686 3.8 -24.9°
Drops below altitude 10° 01:20:05 10° 217° (SW) 1,524 5.6 -25.5°
Sets 01:22:09 0° 209° (SSW) 2,383 6.6 -25.9°
